RH
23 24 28 30 33 40 34 25 27 25 25 20 22 43 52 65 70 66 74 72 57 62 72 75 78 82 83 81 79 82 81 82 85 97 95 96 94 94 94 94 92 94 95 95 96 95 63 49 49
24 23 27 41 32 37 33 24 28 26 24 26 28 37 47 75 68 79 83 66 57 62 66 69 71 73 78 80 79 82 80 81 90 97 96 97 95 95 93 93 92 91 89 77 70 68 61 53 53
26 27 37 37 38 32 32 30 32 29 27 24 23 35 42 74 71 72 68 61 66 64 61 66 70 75 77 81 87 79 83 80 84 87 89 89 91 94 90 78 66 66 61 56 56 56 54 52 52
24 30 29 19 16 15 27 36 34 29 24 22 33 54 48 52 61 64 68 60 62 64 66 68 70 78 81 82 81 78 83 83 85 79 90 79 78 74 58 55 55 58 55 51 48 46 46 44 42
26 34 28 25 18 17 31 34 34 29 27 22 30 42 59 57 59 67 66 64 65 73 71 72 73 77 79 82 82 81 83 86 83 86 87 94 86 71 55 54 55 56 56 60 64 64 61 59 57
35 32 28 20 21 20 27 29 32 31 29 23 41 60 58 62 59 62 61 62 63 69 70 73 78 80 91 91 85 83 83 85 89 88 91 90 87 80 60 56 60 65 70 73 68 61 58 59 62
37 32 23 22 21 19 25 26 26 28 26 23 35 68 62 64 59 59 60 62 67 70 70 73 75 76 78 80 79 79 76 78 81 83 84 87 87 81 69 66 67 72 76 74 67 61 60 67 70
38 32 23 20 21 21 21 18 17 20 25 20 40 70 74 59 59 58 62 69 72 73 72 71 73 73 73 74 73 73 75 75 80 84 82 84 86 85 75 74 76 78 78 73 67 64 64 75 71
26 28 24 19 21 18 17 18 14 13 20 18 26 57 48 55 60 64 77 80 80 79 73 72 71 73 74 73 73 72 73 74 78 80 80 80 78 78 78 83 81 79 75 70 69 73 78 76 74
27 27 20 16 15 17 15 19 15 13 15 18 42 62 55 62 63 72 76 77 77 83 81 78 75 72 72 69 66 67 71 73 76 79 84 79 75 77 80 81 76 76 74 80 81 79 77 75 77
30 31 24 17 18 17 15 14 16 14 15 16 39 71 68 66 68 74 76 73 70 73 79 85 78 82 82 77 70 68 70 76 79 82 89 85 79 81 75 73 75 75 78 76 76 79 74 72 75
22 21 23 19 21 17 17 19 16 17 14 14 24 66 67 67 69 75 76 74 73 69 70 84 80 81 85 81 70 70 76 82 85 83 89 87 82 80 70 66 70 70 72 73 73 78 76 72 75
21 19 18 24 23 20 19 19 19 21 18 17 24 67 70 68 66 67 69 68 69 68 65 71 75 79 83 79 73 76 80 81 80 86 87 86 82 73 70 70 70 70 71 74 79 79 74 73 70
24 22 21 23 22 21 19 19 20 17 18 19 22 54 75 76 74 71 70 67 67 65 66 68 70 72 77 76 74 74 78 79 79 79 81 84 78 72 68 70 71 74 75 78 77 73 69 64 63
24 23 26 26 25 23 22 25 28 21 20 19 21 29 54 72 72 71 64 66 62 64 62 66 68 68 71 72 73 74 73 75 76 73 76 76 82 72 72 72 74 79 78 75 73 66 66 64 66
26 31 32 28 28 24 23 27 21 24 26 24 22 22 25 40 54 62 59 61 62 62 64 63 66 70 72 71 74 70 70 72 71 73 75 72 81 78 77 77 77 74 70 64 59 66 66 64 63
41 35 38 32 30 29 26 27 23 24 22 23 25 25 24 25 24 27 49 52 56 59 61 63 64 68 72 72 74 71 71 71 70 71 72 73 72 77 77 73 71 70 69 55 54 56 49 45 46
40 40 37 36 33 32 34 37 31 29 28 26 27 28 27 28 28 18 18 35 43 50 55 60 63 65 70 72 74 75 75 75 74 72 71 69 69 70 70 67 67 64 60 51 50 47 47 47 45
38 34 30 28 32 32 39 43 38 32 35 36 35 32 29 27 26 22 19 20 37 46 56 61 65 65 70 74 77 78 79 80 78 75 70 68 63 59 58 57 54 53 48 44 50 52 50 50 49
33 32 34 31 34 34 36 41 38 37 36 36 35 34 33 36 39 36 23 24 37 46 55 62 63 64 68 70 75 76 79 80 80 77 72 69 63 57 50 49 51 50 48 48 52 53 48 48 54
37 40 35 30 37 35 38 37 39 30 40 40 43 44 46 44 45 43 36 37 44 49 52 58 62 62 67 69 75 81 82 83 84 78 72 68 63 59 54 48 47 48 48 44 48 47 45 45 54
38 33 32 37 47 49 38 30 36 38 50 50 51 53 55 54 52 49 48 42 45 48 50 59 67 66 67 71 77 81 82 84 84 82 78 69 64 61 58 54 48 47 46 47 44 45 49 51 52
36 37 40 42 58 57 47 64 37 41 51 58 59 57 57 55 53 62 73 66 48 40 40 50 67 74 76 77 77 80 83 81 81 81 79 74 68 65 63 59 52 48 48 46 42 48 52 52 54
50 54 66 74 68 68 44 40 26 46 50 58 63 68 66 63 58 54 54 56 57 60 61 60 54 64 82 83 82 82 83 83 82 79 76 74 72 69 67 62 58 51 49 47 43 47 52 55 53
48 47 80 64 80 55 53 55 40 59 61 67 77 78 72 67 65 63 62 60 58 54 53 57 64 75 87 90 88 87 86 84 80 76 73 70 70 71 69 65 61 56 51 48 50 51 54 56 55
58 45 66 42 76 56 49 65 60 65 75 76 71 64 62 62 60 59 58 59 59 56 52 51 52 53 55 73 88 89 85 82 80 77 74 74 72 67 63 63 63 61 56 52 53 54 54 54 54
54 64 46 66 64 74 67 68 60 72 68 67 66 66 69 66 64 61 59 60 60 58 57 54 52 52 52 55 56 56 62 84 88 84 82 81 79 74 65 63 64 64 62 59 59 58 57 58 59
47 48 66 75 80 72 65 72 79 89 75 69 68 68 65 64 64 64 61 62 58 56 57 54 54 56 55 54 57 64 65 65 62 63 85 90 86 77 69 66 66 66 64 64 65 63 62 63 62
56 58 56 64 74 76 62 52 63 76 70 69 66 64 64 64 64 63 60 56 55 52 53 55 50 50 52 56 58 62 66 74 76 74 68 74 82 77 73 69 68 67 66 69 70 67 64 66 66
50 55 59 74 65 84 70 52 68 68 65 59 59 59 58 59 60 61 58 57 56 57 58 60 60 59 58 56 57 60 65 71 76 84 82 79 84 83 79 74 71 70 70 71 72 71 70 70 70
Wind_Speed
1 3 1 3 4 5 2 1 1 2 2 1 2 9 8 4 2 3 9 13 18 19 16 14 13 12 12 12 12 11 11 11 11 11 12 12 13 14 14 15 15 15 15 16 16 15 17 18 17
2 2 3 2 5 3 4 2 4 2 5 4 7 4 5 2 2 7 13 17 16 17 16 14 14 13 13 13 12 11 11 12 12 11 12 12 12 12 13 13 14 14 14 15 15 15 16 16 16
2 2 3 4 4 3 4 3 6 4 2 3 3 5 5 4 3 12 14 19 18 18 15 15 14 14 13 13 13 12 12 12 12 11 11 10 11 11 11 12 13 13 14 14 14 14 14 15 14
2 5 4 4 2 2 5 6 6 6 2 4 4 6 3 5 13 14 23 23 20 18 14 14 13 13 13 13 13 12 12 12 12 12 12 9 10 9 10 11 12 11 12 13 13 14 14 14 14
3 3 4 3 3 2 3 5 6 5 5 4 4 4 2 3 16 29 27 25 22 19 15 14 13 13 13 12 12 11 11 11 11 11 10 9 9 8 9 10 10 10 11 11 12 12 13 13 14
4 3 4 1 2 1 1 5 6 4 3 4 5 5 4 16 29 26 25 21 18 18 15 15 14 13 12 12 11 11 11 11 11 10 9 8 8 7 8 8 8 9 9 9 10 10 10 11 11
5 4 4 3 3 3 5 6 6 6 5 4 10 5 0 5 25 25 22 20 19 17 16 16 15 14 13 12 12 11 11 10 9 9 9 9 7 7 6 7 6 6 7 7 7 7 7 8 10
4 4 2 2 4 4 3 3 5 6 7 1 7 6 5 12 25 23 21 22 21 18 14 15 15 14 14 13 12 10 10 9 9 8 8 8 7 6 5 5 5 5 5 5 6 6 6 6 8
3 4 2 3 6 4 3 3 0 3 5 1 2 7 6 31 27 24 24 22 21 19 14 14 15 14 13 12 11 10 9 8 9 9 8 8 6 4 3 3 4 4 4 4 5 5 5 5 5
4 4 7 2 2 3 3 4 5 3 3 1 2 4 20 34 29 24 22 20 22 20 19 16 14 15 13 12 11 10 9 8 9 10 11 10 7 5 2 3 3 3 4 6 5 3 3 3 3
3 4 3 1 1 1 2 3 5 6 4 7 8 7 14 19 20 21 21 25 25 21 19 19 15 15 14 11 10 9 10 10 10 12 10 10 9 9 6 6 5 4 2 2 1 1 1 2 1
3 4 3 2 1 1 2 3 2 6 7 3 9 16 15 15 18 21 23 25 24 23 21 21 18 17 16 12 10 11 13 12 13 13 12 12 11 10 8 6 6 3 4 4 4 4 3 1 3
3 1 1 2 1 2 2 3 5 7 8 3 7 9 14 13 19 22 26 27 26 25 25 24 21 20 19 16 13 13 14 13 11 13 11 12 11 9 7 7 6 7 7 8 7 5 4 3 2
4 1 2 3 2 1 1 2 2 6 6 8 9 13 12 12 20 20 25 29 28 28 29 27 24 23 21 19 17 15 15 15 14 14 11 12 11 11 11 9 10 10 10 9 8 7 6 6 4
2 3 4 4 4 2 3 6 9 7 4 3 9 9 11 12 20 24 32 33 34 32 29 31 28 24 22 21 19 17 16 18 17 16 14 12 14 13 14 14 14 12 10 9 9 8 6 5 4
2 3 2 2 6 2 4 7 6 7 6 9 7 8 8 11 19 29 31 34 34 33 33 31 31 28 24 22 21 18 17 19 17 18 16 13 15 15 15 14 13 11 10 9 8 7 7 7 5
4 2 4 5 6 3 3 6 5 4 3 4 7 7 8 8 10 24 34 33 34 34 34 32 33 31 27 22 21 19 17 18 18 17 16 15 14 15 14 13 12 10 9 8 6 6 6 5 6
6 4 4 4 4 1 2 10 9 9 5 8 9 8 7 8 13 25 27 32 33 33 34 36 35 31 28 23 22 20 18 17 18 18 17 15 15 15 15 14 12 11 10 9 8 7 6 6 6
5 3 1 1 0 3 6 7 12 11 7 9 9 9 9 9 9 15 22 24 28 33 34 37 36 33 30 27 26 23 22 20 19 19 18 16 15 16 16 16 14 13 12 10 9 8 7 6 5
1 0 3 2 1 3 4 10 10 8 6 5 5 4 6 6 9 13 15 20 25 32 32 35 37 34 33 30 29 26 24 22 21 20 19 18 17 17 17 17 16 15 13 12 11 9 8 6 5
4 5 4 4 1 1 2 7 6 4 10 13 13 7 10 7 8 11 11 5 11 22 28 33 35 35 34 32 29 21 21 21 21 20 20 20 19 18 18 18 17 17 15 15 14 13 12 9 6
4 4 3 4 4 3 2 3 3 4 9 12 11 11 9 10 9 10 15 15 6 5 12 19 27 31 33 31 29 28 24 24 24 23 22 21 21 21 20 19 19 19 18 17 17 15 13 11 9
5 3 3 3 4 3 2 4 5 3 6 8 9 9 9 8 9 12 16 21 20 14 11 7 11 18 26 28 27 27 26 23 22 21 22 23 23 24 23 23 22 22 21 19 18 17 16 14 12
9 7 8 5 3 2 5 6 4 1 4 1 4 8 9 10 11 15 22 27 28 24 21 16 8 3 13 21 23 25 25 23 20 21 22 24 26 27 27 26 25 24 23 22 21 19 17 16 15
5 7 2 3 2 6 2 3 2 3 5 5 6 6 8 9 12 13 15 22 28 30 25 21 17 13 1 11 19 21 22 22 23 24 24 24 26 29 30 29 29 28 27 24 22 21 20 19 17
7 8 6 8 5 4 1 5 2 4 6 6 6 5 7 10 9 12 16 20 23 28 28 25 22 19 15 9 7 13 17 21 24 24 25 28 30 33 32 31 30 30 28 27 25 25 23 20 19
6 5 5 6 2 3 3 3 2 4 5 5 6 7 8 8 9 10 17 21 24 28 27 26 23 21 18 17 14 12 13 18 24 26 28 29 30 31 34 32 30 31 30 29 27 27 25 22 19
4 6 4 1 6 5 5 4 4 13 9 6 6 7 7 7 8 8 15 19 23 26 26 26 26 24 22 18 17 16 14 15 19 22 29 32 31 30 33 33 32 31 33 32 30 29 26 23 22
3 3 2 5 5 6 4 5 3 15 12 10 7 6 6 6 6 7 14 20 23 26 27 27 29 28 28 26 23 20 19 18 20 21 23 25 29 31 32 35 35 33 34 34 33 32 29 27 25
4 6 6 5 5 2 3 4 3 13 11 11 9 7 5 6 5 7 12 17 20 22 24 24 25 26 27 26 27 26 22 22 22 23 23 22 25 28 31 32 35 35 36 36 36 35 33 31 30
Wind_Direction
321 337 1 40 54 63 311 283 174 99 52 261 104 102 124 79 93 182 144 159 147 147 153 151 150 148 143 139 139 135 130 130 116 108 106 104 98 94 92 89 86 84 80 76 75 75 81 81 81
94 78 50 83 84 57 281 261 139 202 168 133 88 101 54 92 98 126 125 154 145 147 151 154 155 152 147 145 144 140 134 132 128 119 115 115 105 101 97 94 91 88 87 86 82 79 78 79 81
72 58 82 93 110 166 199 185 158 154 153 91 89 63 118 134 98 151 150 151 147 145 152 155 158 154 151 148 147 143 137 133 130 127 125 118 108 102 98 96 93 91 88 85 83 80 76 76 78
39 24 31 81 217 246 187 181 174 141 102 80 121 72 64 231 154 149 153 152 149 150 152 158 162 158 154 151 148 144 139 135 140 136 135 125 116 106 104 102 98 95 93 90 84 78 74 72 73
39 59 68 96 271 279 111 192 175 148 155 133 132 175 63 125 150 144 148 153 154 154 165 167 165 162 157 151 148 146 143 141 141 141 144 137 130 122 115 111 107 102 95 91 87 77 74 68 66
37 94 65 169 234 82 173 207 155 126 181 160 82 116 173 151 145 151 154 157 162 159 164 168 165 162 156 153 153 150 149 148 148 146 146 147 141 130 124 118 110 103 97 94 86 74 72 63 59
117 89 184 191 197 164 193 159 153 171 160 223 147 121 313 184 153 153 157 161 165 166 171 172 169 166 164 162 161 159 157 156 157 156 152 154 148 139 132 126 120 115 106 97 80 68 61 61 57
104 90 140 237 189 216 214 158 125 142 224 85 145 169 177 209 162 160 163 164 164 163 168 176 174 172 169 171 171 169 163 157 158 156 151 151 148 146 144 140 133 123 108 88 68 53 48 59 61
90 67 186 208 163 197 207 149 341 164 127 114 76 153 206 167 164 158 158 162 167 170 177 180 182 180 177 174 171 167 164 160 160 160 152 138 124 110 136 147 143 127 101 81 73 75 60 54 78
92 117 211 211 149 180 202 170 179 144 130 218 41 23 143 159 168 169 175 176 173 175 181 184 182 181 177 177 177 174 168 162 155 153 151 143 151 149 165 167 152 132 120 104 90 86 57 41 94
165 183 220 295 104 67 211 200 179 148 225 206 193 166 153 162 173 179 188 188 189 185 187 188 187 185 179 179 185 179 167 156 152 157 165 164 175 186 156 144 148 144 124 196 296 291 92 83 120
163 247 241 197 130 137 185 320 228 190 216 215 196 166 164 172 182 186 191 193 191 190 192 188 189 194 191 189 184 177 172 171 172 177 178 178 190 190 178 201 214 201 232 234 241 236 186 200 199
181 274 233 152 168 260 331 252 246 257 238 219 127 160 179 185 191 195 197 198 195 195 196 198 200 197 194 194 192 186 183 189 188 189 195 196 195 191 203 213 220 229 235 245 245 250 250 253 233
181 173 273 197 231 271 252 277 18 273 253 215 170 192 190 190 195 196 200 201 202 203 202 201 202 202 202 204 199 197 197 198 197 196 207 205 207 206 203 215 230 229 237 249 249 254 260 262 247
82 317 329 221 191 224 152 287 237 244 316 228 193 196 198 204 195 200 206 205 207 210 208 204 203 201 203 202 202 207 214 207 204 202 210 214 211 204 210 218 225 238 240 250 256 257 259 268 257
64 52 349 296 146 155 117 272 292 320 204 239 204 211 201 214 211 212 213 213 213 211 209 206 204 201 202 204 202 203 200 199 209 202 210 212 211 217 220 224 225 234 240 250 243 248 258 266 268
12 217 207 308 200 121 139 263 265 37 99 252 251 233 220 233 239 227 223 220 218 214 211 205 203 202 202 205 203 205 203 201 203 206 211 216 222 221 224 228 230 235 244 246 248 255 263 274 268
195 205 225 227 220 157 176 262 281 285 307 263 261 264 256 243 240 233 224 221 220 214 211 206 203 203 203 204 207 207 207 203 211 218 223 230 227 225 224 227 229 231 243 236 236 245 247 265 280
138 164 218 277 148 144 244 268 279 283 276 264 247 254 261 255 310 276 240 222 215 211 205 204 200 202 199 197 200 204 208 209 217 223 226 231 230 225 225 224 224 226 230 229 227 232 238 257 275
337 30 258 300 87 147 314 286 274 308 311 323 291 305 340 12 348 337 246 218 208 206 205 202 204 203 201 203 204 211 213 216 225 224 227 234 235 230 229 227 227 230 231 227 225 229 240 240 243
188 180 212 205 16 296 337 304 358 18 40 40 34 32 34 12 4 8 29 180 203 203 203 205 205 206 204 207 203 205 210 218 218 220 224 229 235 235 233 232 232 230 229 227 226 228 225 226 221
202 193 191 157 94 219 37 268 17 12 27 33 19 25 15 11 10 14 23 56 100 176 207 210 208 208 208 209 204 207 206 213 224 230 238 236 236 239 238 237 235 235 232 228 228 225 226 224 220
200 111 114 90 99 43 303 100 262 246 27 7 6 22 24 19 23 27 29 52 64 79 90 110 200 212 214 211 214 215 219 230 238 245 243 239 239 241 244 241 238 235 234 234 230 223 222 225 224
145 79 47 53 70 356 219 154 271 251 152 112 33 20 21 33 37 35 36 45 50 54 56 58 69 146 222 221 222 226 228 237 242 245 242 243 242 243 242 241 239 239 236 233 230 227 225 223 227
92 91 21 2 1 222 10 115 257 6 81 120 86 35 17 28 43 44 40 38 40 45 44 43 42 44 21 227 227 234 240 245 250 249 246 246 245 243 243 242 239 237 236 235 233 229 227 226 229
181 154 156 198 193 237 68 221 256 103 72 71 64 51 45 44 39 44 42 43 43 44 44 43 40 37 33 21 299 268 261 259 259 258 259 263 260 256 255 250 246 244 240 235 231 230 229 228 229
191 189 166 103 24 72 187 96 2 140 108 91 74 59 43 36 37 40 41 43 41 43 43 40 35 29 23 13 357 337 314 289 275 270 272 270 268 266 257 253 250 247 243 238 234 231 230 227 230
155 167 87 16 154 213 236 202 221 186 166 134 99 80 59 40 38 37 41 43 43 44 42 41 38 31 21 11 0 349 329 325 312 296 283 278 276 271 259 253 253 250 244 238 234 233 232 228 230
145 184 135 125 152 166 175 244 279 173 156 140 127 109 94 73 51 42 39 41 41 41 38 33 29 24 20 14 4 354 345 333 320 312 299 287 279 271 265 258 256 250 244 239 234 232 229 227 227
177 180 164 144 211 227 141 257 7 134 139 136 130 124 109 90 80 67 52 42 37 34 33 29 24 20 16 11 10 6 355 350 340 331 320 306 291 282 271 263 257 254 248 241 235 233 231 227 224